Wind_Speed
69 70 70 71 71 71 72 72 73 74 75 76 76 77 78 79 80 81 81 82 83 84 85 86 88 88 89 90 91 92 93 93 93 93 93 94 96 98 99 100 101 102 103 105 106 108 109 110 111 112 113 115 116 117 118 119 120 120 120 120 120 120 120 120 121 121 121 121 120 120 119 119 118 118 116 115 114 112 111 109 107 106 105 104 103
71 72 72 73 73 74 74 75 76 76 77 78 78 79 81 82 82 83 84 85 86 87 88 89 90 91 92 93 93 94 95 95 96 96 97 98 99 101 102 103 104 105 106 108 109 111 112 113 114 115 117 118 119 120 121 122 122 122 122 121 121 121 121 121 121 120 120 119 118 117 116 115 114 113 112 111 110 109 108 106 103 102 102 102 101
73 74 74 75 75 76 77 77 78 79 79 80 81 82 83 84 85 86 87 88 89 90 91 92 92 93 94 94 95 95 96 97 98 99 100 101 103 104 106 107 108 109 110 111 112 113 115 116 117 119 121 122 122 123 123 123 123 123 122 122 121 121 120 120 119 119 117 116 115 113 112 110 109 108 108 107 106 106 105 102 99 99 99 100 99
75 76 76 77 78 78 79 80 81 82 82 83 84 85 85 86 87 88 89 90 91 91 92 93 94 94 95 96 96 97 99 100 101 102 103 104 106 107 109 110 111 112 113 114 115 116 118 120 121 122 123 124 124 124 123 123 123 122 121 121 120 119 118 118 117 115 113 111 110 108 106 105 105 104 103 103 103 102 101 98 96 96 97 98 98
78 78 79 79 80 81 82 83 84 84 85 86 86 87 88 89 89 90 91 91 92 93 93 94 95 96 97 98 99 100 101 102 102 103 105 106 108 110 111 112 113 115 116 117 118 120 121 122 123 124 124 124 123 123 122 121 121 121 120 119 118 116 115 114 112 110 107 105 103 102 101 101 101 100 99 99 99 99 97 95 94 94 95 96 97
81 81 82 82 83 84 85 86 86 87 88 89 89 90 91 91 92 92 93 94 94 95 96 96 97 98 99 100 100 101 102 103 104 105 107 108 110 112 113 114 116 117 118 118 119 120 121 122 124 124 122 121 121 120 120 119 118 118 117 115 113 112 110 108 106 103 100 98 97 97 97 97 97 96 95 95 95 94 93 92 92 93 94 95 95
85 85 86 86 87 87 88 88 89 90 91 91 92 93 93 94 94 95 96 96 97 98 98 99 100 100 101 102 102 103 104 104 106 107 109 110 112 114 115 117 118 118 119 119 119 120 121 122 121 120 119 118 118 118 117 116 115 113 111 109 107 105 103 101 98 96 94 93 93 93 93 93 92 92 91 91 91 90 91 91 91 92 93 93 94
88 88 88 89 89 89 90 91 91 92 93 93 94 95 95 96 97 97 98 99 99 100 100 101 102 102 103 104 104 105 106 107 109 110 112 113 115 116 117 117 118 118 118 117 116 116 117 117 116 115 116 116 116 115 112 110 107 105 104 102 100 99 96 95 93 91 90 90 90 90 90 89 88 88 87 88 88 89 90 90 91 91 92 92 94
91 91 91 90 91 91 92 93 93 94 95 96 96 97 97 98 99 99 100 100 101 102 102 103 104 105 106 106 107 107 108 110 112 113 115 116 116 117 117 117 117 116 115 114 113 111 111 112 112 113 113 112 109 106 103 102 101 100 99 97 95 93 91 90 89 89 89 88 88 87 87 86 86 85 86 87 87 88 88 89 90 91 92 93 95
92 92 92 92 92 93 94 95 95 96 97 97 98 98 99 100 101 101 101 102 103 104 105 106 106 107 107 108 109 110 112 113 114 115 116 116 116 116 115 114 114 112 111 110 108 106 107 109 108 107 105 100 96 96 96 97 97 95 93 91 90 88 87 87 86 86 86 86 85 85 84 84 84 84 85 85 85 86 87 88 90 92 93 95 97
94 94 93 93 94 94 95 96 97 97 98 98 99 100 101 101 102 102 103 104 105 105 106 107 107 108 109 111 112 113 114 115 115 116 116 115 115 114 112 110 108 108 107 106 105 104 104 103 100 96 93 90 91 93 93 92 91 89 88 87 85 84 83 83 83 83 82 82 82 82 81 82 82 83 83 84 85 86 87 89 91 93 95 97 99
94 94 94 94 94 95 96 97 97 98 98 99 100 101 102 102 103 104 104 105 106 107 108 109 110 111 112 113 113 114 114 115 115 114 113 112 110 108 105 103 102 102 101 100 100 99 94 91 89 87 85 86 88 88 86 85 85 84 83 82 81 81 80 79 79 79 79 79 79 79 80 81 81 82 83 85 86 87 89 90 93 95 97 99 100
94 94 94 94 95 95 96 97 97 98 99 100 101 101 102 102 103 104 105 106 107 108 110 111 112 113 114 114 114 114 114 114 112 110 107 104 102 99 98 97 96 96 95 94 94 91 84 82 84 84 82 81 81 80 80 80 80 80 79 79 79 78 78 77 77 77 77 78 78 79 80 81 82 83 85 86 88 89 91 93 96 98 99 100 100
95 94 94 95 95 96 97 97 98 99 100 100 101 101 102 103 104 105 106 107 108 110 111 112 113 113 113 113 113 112 110 107 104 100 96 94 92 92 92 91 91 90 90 88 86 83 79 78 78 77 76 75 75 75 75 75 75 76 76 76 76 76 76 77 77 77 78 78 79 81 82 83 84 85 87 88 90 92 94 95 97 98 99 98 98
96 95 96 96 97 97 97 98 99 100 101 101 101 102 103 103 104 105 106 108 109 110 110 111 111 110 110 109 107 104 100 96 92 89 87 85 85 86 86 87 86 85 83 80 76 73 71 70 69 68 68 68 68 69 69 70 71 71 72 72 73 74 75 76 77 77 78 79 81 82 83 85 86 88 90 92 93 94 94 95 96 97 96 96 95
97 97 97 97 97 97 97 98 100 101 101 100 101 102 103 103 104 105 106 108 108 108 108 107 107 105 103 101 97 92 88 84 82 80 80 80 81 82 82 82 80 78 76 72 69 66 64 63 62 61 61 61 62 63 64 65 66 68 69 71 72 74 75 77 77 78 80 81 82 84 85 87 88 89 90 91 92 92 92 92 93 93 94 94 94
98 98 98 97 97 97 98 99 100 100 99 99 100 101 103 103 104 105 106 107 107 105 104 103 101 98 95 91 86 82 78 76 75 75 76 77 78 78 78 77 75 74 71 68 66 63 61 60 59 58 58 59 59 60 62 63 65 67 70 71 73 75 76 77 77 78 80 81 82 83 84 85 86 87 88 88 89 89 89 89 90 91 92 92 92
98 97 97 97 97 97 98 99 99 98 98 99 100 101 103 104 104 105 105 104 103 100 98 96 94 91 87 83 79 75 72 71 71 72 73 74 75 75 74 73 71 69 67 65 63 61 60 59 58 57 57 57 58 59 60 61 63 65 67 69 71 72 73 74 75 76 77 78 79 80 81 82 83 84 85 86 87 87 87 87 88 89 89 90 91
97 96 96 97 97 97 98 98 98 98 99 100 101 101 103 105 105 105 103 100 97 95 94 92 89 84 81 76 73 70 68 67 68 68 69 69 69 68 67 66 65 63 62 60 59 57 56 55 54 53 53 53 54 55 56 58 60 62 64 66 68 69 70 71 71 73 74 75 76 77 78 79 80 81 82 83 84 84 85 86 87 88 89 90 91
96 96 97 97 97 97 97 98 98 99 100 101 101 102 104 105 105 103 100 96 93 93 93 89 83 78 74 71 69 67 65 63 63 63 63 63 62 62 61 60 59 58 57 56 54 53 52 50 49 48 48 48 49 52 54 56 59 61 63 65 67 68 69 69 70 72 73 73 74 76 77 78 79 80 81 82 83 83 84 85 87 88 90 91 92
96 96 96 96 96 97 98 98 99 99 100 101 101 103 104 103 102 100 97 94 93 93 93 86 77 73 71 68 66 64 62 61 60 59 58 58 57 57 56 55 54 53 52 51 50 49 47 47 46 46 46 48 50 53 55 58 60 62 64 66 67 68 69 70 71 72 73 74 75 76 78 79 80 81 82 83 84 85 85 87 88 90 91 92 93
95 95 95 96 97 97 97 98 98 99 101 102 102 102 101 100 99 98 95 93 94 96 93 85 75 70 68 65 64 62 60 58 57 55 54 53 52 52 51 50 49 49 48 47 47 46 46 46 47 47 49 51 54 56 58 60 62 65 67 68 69 70 71 71 72 73 73 74 76 77 79 80 81 82 84 86 86 87 88 90 91 92 93 94 95
94 94 95 96 96 96 96 96 97 99 101 102 100 99 98 97 98 97 95 95 96 97 93 83 73 67 65 63 62 60 58 56 54 52 50 49 47 46 46 45 46 46 45 45 45 46 47 48 49 50 52 53 56 58 60 62 64 66 68 69 71 72 73 73 73 74 74 75 77 79 81 82 83 84 86 87 88 89 90 92 93 94 95 96 96
92 93 93 94 94 95 96 97 98 99 99 99 98 97 97 96 96 95 95 96 96 94 89 79 69 64 62 61 60 58 56 54 52 50 49 47 47 46 45 45 46 45 45 46 47 48 50 51 52 54 55 57 59 60 61 63 65 67 68 70 73 74 76 76 76 76 76 77 78 80 81 82 84 85 87 88 90 90 91 93 94 95 96 97 98
90 91 91 92 94 96 98 98 97 96 96 96 96 95 95 95 95 95 95 95 94 91 83 73 65 62 60 58 57 56 55 53 51 50 49 48 48 47 48 48 49 49 50 51 52 54 55 56 58 58 59 60 61 62 63 65 67 69 70 72 74 77 78 80 81 81 80 80 80 81 82 83 84 86 88 90 91 92 93 94 95 96 97 98 99
90 91 92 94 96 97 96 94 93 93 94 94 94 94 94 94 94 94 93 92 90 87 79 69 63 61 60 59 57 55 54 53 52 52 51 50 50 50 51 52 53 54 55 56 58 59 60 60 60 60 60 61 62 63 65 67 69 71 73 75 77 79 82 84 85 86 85 84 84 84 84 84 85 86 88 90 91 92 94 95 96 97 98 99 100
92 93 94 94 94 94 93 92 92 93 94 94 94 94 93 93 92 91 90 88 86 83 78 70 65 62 63 62 60 58 56 55 55 55 55 55 54 54 56 58 59 60 60 60 61 62 62 61 61 61 62 63 64 65 67 69 72 75 77 79 81 83 86 88 90 91 90 89 88 87 86 86 86 87 88 90 91 93 94 96 97 98 100 101 102
93 94 93 92 91 92 92 92 93 93 92 92 93 93 93 93 90 88 86 84 82 82 78 72 66 64 65 65 63 61 59 58 59 60 60 60 60 61 62 64 66 66 66 65 65 66 65 64 64 64 64 66 67 69 70 72 75 78 81 83 85 87 90 92 94 95 95 94 92 90 89 88 88 89 89 90 92 93 95 97 98 100 101 102 103
92 92 91 90 90 91 92 92 92 92 92 92 92 93 93 92 90 86 83 79 78 79 78 73 68 66 66 65 64 64 63 62 63 63 64 64 64 65 65 67 68 68 68 68 68 67 66 64 64 64 66 67 69 71 73 75 78 82 85 87 90 92 93 95 97 99 100 99 97 94 92 91 90 90 91 91 93 94 96 98 100 101 103 104 105
91 91 91 91 91 91 92 92 91 92 92 93 93 93 93 91 89 86 82 79 76 76 76 75 72 69 67 65 64 64 64 65 66 67 67 66 65 64 65 66 66 66 66 66 66 65 65 65 65 66 68 69 71 74 76 79 82 85 88 91 94 96 98 99 101 103 104 104 102 99 96 93 92 92 92 93 94 96 97 99 101 102 104 105 106
91 92 92 92 91 91 91 91 91 92 93 93 93 93 92 90 88 84 81 79 76 73 72 74 75 73 71 68 66 64 64 66 67 68 68 67 65 64 64 64 64 64 64 65 65 65 66 67 68 69 71 72 74 77 79 82 85 89 92 95 98 100 102 103 105 106 106 107 106 104 100 97 94 94 94 95 96 98 99 101 102 104 105 107 108
93 94 94 93 92 91 91 91 91 93 94 94 93 92 91 88 86 83 81 79 75 73 72 73 74 75 75 73 70 67 66 66 66 67 67 66 65 65 64 64 64 64 65 66 66 67 68 69 71 73 75 76 78 80 83 86 90 94 96 99 101 104 106 107 108 109 109 110 110 108 105 101 98 96 96 96 98 99 101 103 105 106 107 108 109
96 96 95 94 93 93 92 91 92 94 95 94 93 91 89 86 84 82 81 79 76 74 73 73 74 75 76 76 75 73 70 68 67 68 68 67 67 66 66 67 66 66 67 68 69 70 71 72 74 76 78 80 82 85 87 91 94 98 101 103 105 108 109 111 112 112 112 113 112 110 108 105 102 99 97 97 98 100 101 103 105 106 107 107 109
98 97 97 97 96 95 93 93 94 95 96 94 91 89 87 85 83 82 80 78 76 75 75 76 76 76 77 78 79 79 76 73 72 72 71 70 69 70 70 70 70 69 70 71 72 73 74 75 77 79 81 83 86 88 91 95 98 102 105 107 109 111 113 114 115 115 115 115 114 113 111 109 105 101 98 97 97 99 101 103 104 105 106 107 108
100 101 100 99 97 95 94 94 94 95 94 93 90 87 85 84 84 82 80 79 78 78 78 77 77 78 79 80 81 82 81 79 78 77 75 74 73 74 75 75 75 75 75 76 77 77 78 79 81 83 85 87 89 92 95 99 102 105 108 111 112 114 115 116 117 118 118 118 117 115 114 112 108 103 99 97 97 98 100 102 103 104 105 106 107
104 104 102 99 95 93 93 94 94 94 93 91 88 85 84 85 85 84 82 81 80 80 79 79 80 80 81 82 82 82 83 83 83 82 80 78 78 79 79 80 80 81 81 82 82 83 83 84 86 88 90 92 94 97 100 103 105 108 110 113 115 116 117 118 119 120 121 121 120 118 117 114 110 106 101 98 97 98 100 102 103 104 105 106 107
106 101 96 93 91 91 92 92 92 92 91 89 87 85 85 86 85 83 81 81 81 80 80 80 81 82 83 83 84 84 85 85 85 84 84 83 83 84 83 84 85 86 87 88 89 89 89 90 91 93 95 97 99 101 103 106 108 110 112 115 117 118 119 121 122 123 124 124 123 121 119 115 112 108 103 100 99 99 100 101 102 103 104 106 108
99 92 88 87 88 90 90 91 91 90 89 88 87 88 88 87 84 81 80 81 81 81 81 81 82 84 85 86 86 86 86 86 86 86 87 87 87 88 88 89 90 90 91 93 94 94 95 96 97 98 100 101 103 104 106 109 111 113 115 117 119 121 122 123 124 125 126 126 126 124 121 117 114 110 106 103 101 101 101 101 102 103 104 106 108
89 87 87 87 88 89 91 91 90 90 89 89 89 90 90 87 83 81 81 82 82 82 82 83 84 85 87 88 88 88 88 88 88 88 89 89 89 90 91 92 93 93 94 96 97 98 100 101 102 103 105 106 107 108 110 112 114 116 118 120 122 123 125 126 127 128 129 130 129 126 123 119 115 112 109 105 103 102 102 102 103 104 106 108 110
86 87 88 88 89 90 91 91 91 91 91 91 92 91 90 86 84 83 83 83 83 83 83 84 85 87 88 89 89 89 90 90 90 91 90 90 90 91 92 93 94 95 96 98 100 101 103 104 106 107 109 110 111 113 114 116 118 120 121 123 125 126 128 129 130 132 133 133 132 129 125 121 117 114 110 107 105 104 104 104 105 107 108 110 112
86 87 87 89 90 91 92 92 92 92 92 92 93 92 90 88 86 85 85 85 85 85 85 85 87 89 90 90 90 91 92 93 93 93 92 92 92 92 93 93 94 96 97 99 102 103 105 106 108 110 112 114 115 117 118 120 121 123 125 126 128 130 131 133 134 135 136 136 134 131 127 123 119 115 111 108 107 106 106 107 108 110 111 113 115
87 87 88 89 90 92 93 93 93 94 94 95 95 94 92 91 90 89 88 87 86 86 86 88 89 90 91 91 92 93 95 95 95 94 94 94 94 94 94 95 96 97 99 101 103 105 106 108 110 112 114 116 118 120 121 123 124 126 127 129 131 132 134 136 137 137 138 138 135 132 129 125 121 116 112 109 108 108 109 110 112 113 115 117 119
88 88 89 91 93 94 95 95 96 97 97 97 97 96 95 95 93 92 90 88 88 88 89 90 91 92 93 94 95 96 97 98 97 96 95 95 95 95 96 97 98 99 101 103 105 106 108 110 112 115 117 118 120 122 124 125 126 128 130 131 133 135 136 137 138 139 140 139 136 133 130 126 122 118 114 111 110 110 111 112 114 116 118 120 122
88 88 90 93 96 97 98 98 99 100 100 99 99 98 97 96 94 92 90 90 90 91 92 94 95 96 96 96 97 99 100 99 98 97 96 96 96 96 97 98 100 102 104 105 106 108 110 113 115 117 119 121 123 124 126 127 129 130 132 134 135 137 139 140 141 142 142 140 137 134 131 128 124 120 116 114 113 113 114 116 117 119 121 123 125
88 89 91 94 97 99 101 101 101 101 101 101 100 100 100 99 96 94 93 93 93 94 95 97 99 100 100 100 100 101 101 100 99 98 98 98 98 98 98 100 102 104 105 107 108 110 113 115 117 119 121 123 125 126 128 129 131 133 135 136 138 140 142 143 144 144 143 141 138 135 132 129 125 122 120 118 118 118 119 120 122 124 126 128 129
87 88 91 94 97 100 101 101 102 102 102 102 102 103 103 101 98 97 96 96 96 97 99 100 101 102 102 103 103 103 102 102 102 101 101 100 100 100 101 102 103 105 106 108 110 112 114 116 118 121 123 126 127 129 130 132 134 135 137 139 141 143 144 146 146 146 144 141 138 136 133 130 126 124 122 122 122 123 124 125 127 128 130 131 132
86 88 91 94 97 99 100 100 102 102 103 103 103 104 103 102 100 100 100 100 100 100 101 102 102 103 104 105 106 105 105 104 104 104 103 103 103 103 103 104 105 106 108 110 112 114 116 119 121 124 126 128 129 131 133 135 136 138 140 142 144 146 147 148 148 146 143 141 139 136 134 130 127 125 124 125 125 126 127 129 130 132 133 133 133
86 89 92 95 98 99 100 101 102 103 104 104 104 103 102 101 102 103 103 103 102 102 102 103 103 104 106 107 108 108 107 107 107 106 106 106 105 106 106 107 108 110 112 114 115 117 120 122 125 127 129 130 133 134 136 138 139 141 143 145 147 149 150 150 148 146 143 141 139 136 133 130 127 126 126 127 128 129 131 132 133 133 133 133 132
88 90 94 97 99 101 102 103 104 105 105 105 104 103 102 102 103 104 104 103 103 102 102 103 104 106 107 109 110 110 110 110 110 109 109 109 109 109 109 111 112 114 116 117 119 121 124 126 128 131 133 135 137 139 140 141 143 145 147 149 151 152 152 151 148 145 143 141 138 136 132 129 128 128 128 130 131 132 133 134 133 133 132 131 128
90 92 95 98 100 102 103 104 105 105 106 106 105 104 104 104 103 103 102 103 103 102 103 104 105 107 109 110 111 112 112 112 112 112 112 112 112 113 114 115 117 118 120 121 123 126 128 131 133 135 138 140 142 143 144 145 146 148 150 152 153 154 152 150 147 144 142 140 137 134 131 130 129 130 131 133 134 134 134 133 133 131 129 126 123
93 95 97 99 102 103 104 104 105 106 107 107 108 108 107 105 103 102 103 104 104 105 105 106 107 108 110 111 112 113 114 115 115 115 116 116 117 117 118 119 120 122 123 125 128 130 133 136 138 140 143 144 145 146 146 147 149 151 153 154 155 154 152 149 146 144 142 139 136 133 131 131 131 133 134 135 135 134 133 132 130 127 124 121 117
Wind_Direction
283 284 285 286 287 288 289 290 291 292 292 292 292 292 292 293 293 293 294 294 293 294 294 294 295 295 295 296 296 296 297 297 298 298 298 298 299 299 300 301 301 302 302 302 302 302 302 302 302 301 301 301 300 300 300 300 300 300 299 299 299 299 299 299 299 299 299 299 299 299 300 300 300 301 301 302 302 303 303 304 305 306 306 306 308
282 283 284 285 286 287 288 289 290 290 290 291 291 291 291 292 292 293 293 293 293 294 294 294 294 295 295 296 296 297 297 298 298 299 299 300 300 300 301 302 302 302 302 302 302 302 302 301 301 301 300 300 300 300 300 300 299 299 299 299 298 298 298 298 299 299 299 299 299 299 300 300 300 300 301 301 302 302 303 304 305 306 306 307 308
281 282 283 284 285 286 287 288 289 289 290 290 290 290 291 291 292 292 293 293 293 294 294 294 295 295 296 296 297 297 298 299 299 300 300 301 301 301 302 302 303 303 303 302 302 302 301 301 301 300 300 300 300 300 299 299 299 298 298 298 298 298 298 298 298 298 299 299 299 299 299 299 299 300 300 301 301 301 302 304 305 306 306 307 308
280 281 282 284 285 286 287 287 288 289 289 289 289 290 290 291 292 292 292 293 293 293 294 294 295 295 296 296 297 298 298 299 299 300 301 301 301 302 302 302 303 303 302 302 302 301 301 301 300 300 299 299 299 299 299 298 298 298 298 298 298 298 298 298 298 298 298 299 299 299 298 298 298 299 299 300 300 301 303 304 305 306 307 308 309
280 281 282 283 284 285 286 287 287 287 287 288 288 289 290 290 290 291 291 292 292 292 293 293 294 295 295 296 296 297 298 298 299 300 300 301 301 301 302 302 302 302 301 301 301 301 300 300 299 299 299 298 298 298 298 298 298 298 298 298 298 298 298 298 298 298 298 298 298 298 297 297 298 298 299 300 300 302 304 305 306 307 308 309 311
279 280 281 282 283 284 285 285 285 286 286 287 288 288 289 289 290 290 290 291 291 292 292 293 293 294 295 295 296 297 297 298 298 299 300 300 300 301 301 301 300 300 300 300 300 300 299 299 298 298 298 297 297 297 297 297 297 298 298 298 298 298 298 298 298 298 298 297 297 297 297 297 298 299 299 300 302 303 305 306 307 308 309 310 311
277 279 280 281 282 283 283 284 285 285 286 287 288 288 289 289 290 290 291 291 292 292 293 293 294 294 295 295 296 296 297 297 298 298 299 299 300 300 300 300 300 300 300 300 300 299 298 297 296 296 296 297 297 297 297 297 297 298 298 299 299 299 299 298 298 297 297 296 296 296 297 298 298 300 301 302 303 305 306 307 309 309 310 310 311
276 277 278 280 281 282 283 284 284 285 286 287 288 288 289 289 290 291 291 292 292 293 293 294 294 294 295 295 296 296 297 297 298 298 299 299 300 300 300 300 299 299 299 299 298 297 296 295 294 295 296 296 297 297 297 298 298 299 299 299 299 298 298 297 296 296 296 296 296 297 297 298 299 301 302 304 305 307 308 309 309 309 310 311 311
276 277 278 280 281 282 283 284 284 285 286 287 288 289 289 290 290 291 292 292 293 293 293 294 294 294 295 295 296 296 297 297 298 299 299 300 300 300 300 300 299 299 298 297 296 295 293 293 294 295 296 296 297 297 298 299 300 300 300 299 299 298 297 296 295 295 295 296 296 297 298 300 301 303 304 305 307 308 309 309 309 309 310 311 311
277 278 279 280 281 282 283 284 285 285 286 287 288 289 289 290 291 291 292 292 293 293 294 294 295 295 295 296 296 296 297 298 299 299 300 300 300 300 300 299 299 298 296 295 294 293 293 294 295 296 296 297 297 298 299 300 300 300 299 299 298 297 296 295 295 295 296 296 297 298 300 302 303 305 306 308 308 308 308 309 309 310 310 310 309
278 279 280 281 281 282 283 284 284 285 287 288 288 289 290 290 291 291 292 293 293 294 294 294 295 295 295 295 296 297 298 299 299 300 300 300 300 300 299 298 297 295 295 294 294 294 294 295 295 295 295 296 297 299 300 300 300 300 299 298 297 296 296 296 296 296 297 298 300 301 303 305 306 307 307 308 308 308 309 309 309 308 308 308 308
278 279 280 280 281 282 282 283 285 286 287 288 289 289 290 290 291 292 292 293 293 294 294 294 294 295 295 296 297 298 299 299 300 300 300 300 300 299 298 296 295 294 294 295 295 296 296 296 295 295 295 296 298 300 300 300 300 299 298 298 298 298 298 298 299 300 300 302 303 305 306 306 307 307 307 307 308 308 308 308 307 306 307 307 308
278 279 280 281 281 282 283 284 285 286 287 288 289 289 290 291 291 292 293 293 294 294 294 295 295 296 297 297 298 299 300 300 300 301 301 300 298 297 295 294 293 293 294 295 296 296 296 295 296 297 298 299 301 302 302 302 302 302 302 302 302 302 302 303 303 304 304 305 306 306 307 307 307 307 307 308 307 307 306 306 305 306 306 307 307
278 279 279 280 281 282 283 285 286 287 288 288 289 290 290 291 292 292 293 294 294 295 295 296 297 297 298 299 300 300 300 301 301 301 299 298 295 294 293 292 293 293 294 295 296 297 297 297 299 300 302 303 304 305 306 306 307 306 306 306 305 305 305 305 306 306 307 307 307 307 308 308 307 307 306 306 305 305 305 305 305 306 306 307 307
277 278 278 280 281 282 284 285 286 287 288 288 289 290 290 291 292 293 293 294 295 296 297 298 298 299 299 300 301 301 302 302 301 299 297 294 293 292 292 292 293 294 295 295 297 297 298 299 301 303 304 306 307 308 308 308 308 308 307 307 307 307 307 307 308 308 308 308 308 308 308 306 305 305 304 304 304 305 305 305 306 306 306 307 307
276 277 278 279 280 282 284 285 286 287 287 288 289 290 290 291 292 293 294 295 296 298 298 299 300 300 301 302 303 303 302 301 299 296 294 293 292 291 292 292 293 294 295 296 297 297 298 300 302 303 305 306 307 307 308 308 309 309 309 309 309 308 308 309 309 308 307 306 306 305 305 304 304 304 304 304 305 305 306 306 306 306 307 307 308
275 276 278 279 281 282 283 284 285 286 287 288 289 289 290 291 292 293 295 296 298 299 301 302 303 304 304 305 305 304 301 299 296 294 293 292 292 292 293 294 295 296 296 297 298 298 298 299 300 302 303 305 306 308 310 311 311 311 310 309 308 307 307 307 306 305 304 304 304 304 304 304 305 305 305 305 305 306 306 307 307 307 307 307 308
275 276 278 279 281 282 283 284 285 286 287 288 288 289 290 291 293 294 296 297 299 302 304 306 307 307 307 307 305 303 300 297 295 293 292 292 292 293 294 295 296 297 298 299 299 300 300 301 302 304 306 308 311 312 312 312 311 310 309 308 307 306 306 306 306 306 306 306 306 306 306 306 306 306 306 306 306 306 307 307 307 307 307 307 308
275 277 279 280 281 282 282 283 285 286 287 287 288 289 291 293 294 295 296 299 302 305 308 310 309 308 307 306 303 301 298 296 295 294 293 293 294 295 296 297 298 299 300 301 302 303 305 306 308 310 311 313 314 314 313 312 311 310 310 309 309 309 310 310 309 309 309 309 308 308 307 307 307 307 307 307 307 307 307 307 307 307 307 307 307
276 278 279 279 280 281 282 283 285 285 286 287 288 290 292 293 295 296 298 301 305 308 311 312 310 307 305 303 300 299 298 297 296 296 296 296 297 298 299 299 301 302 303 305 306 307 308 310 310 311 313 314 316 316 316 316 316 315 314 314 313 313 312 311 310 310 309 309 308 308 307 307 307 307 307 306 306 306 306 306 305 305 305 305 306
277 278 278 279 280 281 282 283 284 285 285 286 288 291 293 295 297 299 301 305 308 311 313 313 309 306 304 302 300 300 300 300 300 300 300 300 301 301 302 303 304 305 307 308 309 309 310 310 311 312 313 314 315 315 316 318 319 319 319 318 317 315 313 312 311 309 309 308 307 306 306 306 306 306 306 305 305 305 304 304 303 303 304 304 304
276 277 278 279 280 281 282 284 284 285 285 287 289 292 294 297 300 302 305 308 311 313 314 312 308 306 305 304 303 303 304 304 304 303 303 304 304 305 306 307 308 309 310 311 312 312 312 313 313 314 314 314 315 316 317 319 321 322 322 321 320 318 316 314 312 309 307 306 305 304 304 304 304 304 304 303 303 303 303 303 303 303 303 304 304
276 277 278 279 281 282 283 283 283 284 286 288 291 293 297 300 303 306 309 311 312 313 313 312 309 307 306 306 306 306 306 306 305 305 304 304 305 305 306 308 309 310 311 311 311 311 311 311 312 312 313 314 315 316 318 320 321 321 322 323 323 322 321 319 315 312 308 306 304 303 303 303 303 303 303 302 303 303 303 303 303 303 303 303 304
276 277 279 281 281 282 282 282 283 285 288 291 294 297 300 302 305 308 309 311 312 312 312 311 310 308 307 307 307 306 306 305 304 303 303 302 302 302 303 304 305 306 306 305 305 306 307 307 307 308 308 309 311 313 316 318 319 320 322 325 326 327 327 326 323 318 313 308 305 303 302 302 302 302 302 302 303 303 303 304 304 303 304 304 304
277 279 280 280 280 281 283 284 287 290 293 295 298 300 302 304 306 307 309 310 310 310 309 309 309 308 306 305 305 304 304 303 302 301 301 299 299 301 301 302 303 303 304 303 303 303 304 304 305 306 307 308 311 313 316 317 319 321 324 327 328 330 331 331 329 325 320 314 309 306 303 302 302 302 302 303 303 304 304 304 304 304 304 304 304
277 278 279 281 283 285 288 290 293 295 296 297 299 300 302 304 306 307 308 308 308 308 307 306 307 307 305 302 301 300 299 299 299 299 298 297 297 299 300 301 302 303 304 303 303 303 303 303 305 306 308 310 313 315 317 319 321 323 325 328 329 331 333 333 332 330 326 321 316 311 306 303 301 301 301 302 303 303 304 304 304 304 303 303 303
278 280 282 285 287 289 291 294 295 296 297 298 299 300 302 304 305 305 306 305 305 306 305 302 304 306 305 302 299 296 296 296 296 297 297 296 296 297 297 298 300 301 303 303 303 303 303 302 303 306 308 311 313 316 318 321 323 325 327 328 330 331 332 333 333 332 330 327 321 316 310 305 302 300 300 301 302 302 302 302 302 302 302 303 303
281 284 286 288 289 291 293 294 295 296 296 297 298 300 302 303 303 303 303 303 303 303 302 300 300 303 305 302 298 295 293 294 295 295 296 296 296 295 295 296 296 297 299 300 300 301 301 302 304 306 309 311 314 317 320 322 324 326 328 329 330 330 331 332 333 333 332 330 325 320 314 309 304 301 299 299 300 300 300 301 301 301 302 302 302
283 285 287 289 290 292 293 294 294 294 295 296 297 299 300 301 301 301 301 300 300 300 300 298 298 301 304 303 299 294 291 291 292 293 295 296 296 295 294 294 294 295 297 297 298 299 301 303 305 308 311 313 317 319 321 323 325 327 328 329 329 330 330 331 331 332 332 330 328 323 318 313 307 303 300 298 297 298 298 299 299 300 300 301 301
283 285 286 288 289 291 292 292 292 292 293 294 296 297 298 298 299 299 298 297 297 297 297 297 298 300 302 302 298 294 291 290 290 291 293 295 295 295 295 295 295 296 297 298 299 301 303 304 307 310 313 316 318 320 322 323 325 326 327 328 329 329 329 330 330 331 330 329 328 325 321 316 310 306 302 299 297 296 296 297 298 298 299 300 300
282 284 285 287 289 290 290 290 289 290 291 293 294 295 295 296 297 297 296 295 295 295 296 296 297 299 300 299 297 294 291 290 290 291 292 293 295 296 296 296 296 297 298 299 301 303 305 307 309 312 315 317 318 320 322 323 325 326 327 328 328 329 329 330 330 329 329 328 327 326 323 319 313 309 305 302 299 298 297 297 297 298 299 299 300
281 283 284 286 288 289 288 287 287 288 289 291 292 292 293 294 294 295 294 293 293 293 293 294 296 298 298 298 298 296 293 291 291 292 293 295 296 297 298 299 299 300 300 301 303 304 306 309 311 313 315 317 318 320 322 323 325 326 327 327 328 328 329 329 329 329 328 327 327 326 324 320 316 312 308 305 302 300 299 299 298 299 299 300 300
280 281 282 284 286 287 286 285 285 286 288 289 290 290 291 291 292 293 293 291 291 291 291 293 294 296 297 298 299 300 297 295 294 295 296 297 298 299 300 301 301 302 302 303 304 306 308 310 312 314 316 317 319 320 322 323 325 326 326 327 327 328 328 329 329 328 328 327 326 325 324 321 318 314 310 306 304 302 301 300 300 300 301 301 302
278 280 282 284 285 285 284 283 284 285 286 287 287 287 288 289 291 292 291 290 289 290 291 292 293 295 297 299 300 301 301 299 297 298 298 299 300 301 302 303 303 304 304 305 306 307 308 310 312 314 316 318 319 320 321 323 324 325 325 326 326 327 328 328 328 328 327 326 326 325 324 322 319 315 311 308 305 303 302 301 301 301 302 302 302
278 279 282 283 283 283 282 282 283 283 283 284 284 285 286 287 289 290 288 287 287 288 289 290 291 293 295 297 298 300 301 300 300 300 300 300 302 303 304 305 306 306 307 308 308 309 309 311 313 315 316 318 319 320 321 322 323 323 324 324 325 326 326 327 327 327 327 326 325 324 323 322 320 316 312 308 306 304 303 302 302 302 301 301 301
278 280 282 282 281 280 281 281 281 281 281 281 282 283 285 287 288 288 286 285 286 286 288 289 290 292 293 295 297 299 300 300 301 301 301 302 303 304 304 305 306 307 308 309 310 310 311 312 314 315 316 318 319 319 320 321 321 321 322 323 324 325 325 325 326 326 326 325 325 324 323 322 319 316 312 309 306 304 302 301 301 301 301 301 301
279 279 279 278 278 278 279 278 278 277 278 278 279 281 284 287 287 285 284 284 285 286 287 289 290 292 293 294 296 297 299 300 300 300 300 301 302 303 303 304 305 307 308 310 310 311 312 313 314 315 316 316 317 318 319 319 319 320 320 321 322 323 324 324 324 324 325 324 324 323 322 321 319 316 312 309 306 303 302 301 301 301 301 301 301
276 275 274 274 275 276 275 275 275 275 275 276 278 281 284 286 284 283 282 283 284 285 286 288 289 291 292 293 294 297 298 299 299 299 299 300 301 301 301 302 303 305 306 308 309 310 311 312 313 314 315 315 315 316 317 318 318 318 319 320 321 323 323 323 323 323 323 323 323 323 322 320 318 316 312 309 306 304 303 302 302 301 301 301 302
272 271 271 272 273 272 272 272 272 273 274 276 278 281 284 284 282 281 282 283 283 284 285 287 288 289 290 291 293 295 297 297 297 297 297 298 298 298 299 300 301 302 304 305 307 309 310 311 312 313 313 314 314 315 315 316 317 318 318 319 321 322 322 322 322 322 322 323 322 322 321 319 318 315 313 309 307 305 304 303 303 303 303 302 303
268 269 271 271 271 270 270 270 270 272 274 276 278 281 283 283 281 280 281 282 283 283 284 285 286 287 288 290 291 293 295 296 296 296 296 296 296 296 297 298 299 300 301 303 305 306 307 309 310 311 312 312 313 314 315 316 316 317 318 319 320 321 321 321 321 322 322 322 322 321 320 319 317 315 312 309 307 306 305 304 304 304 304 303 303
267 268 269 269 268 268 268 268 270 272 274 276 278 280 281 281 279 278 279 280 281 282 283 284 285 286 287 288 290 292 293 295 295 295 295 295 295 295 296 297 298 299 299 301 302 304 305 307 308 309 310 311 312 313 314 315 316 317 318 318 319 320 320 321 321 321 321 321 321 320 319 318 316 314 312 309 306 305 305 304 304 304 304 304 304
266 267 267 266 266 265 266 268 269 271 273 276 278 280 280 280 279 278 278 279 280 281 282 283 284 285 287 288 289 290 292 293 294 294 294 294 294 294 295 296 296 297 298 299 301 302 304 305 306 308 309 310 311 312 313 314 315 316 317 318 318 319 319 319 319 320 320 320 319 318 317 316 315 313 311 308 306 305 304 304 304 304 304 304 304
264 264 264 264 263 264 265 267 270 272 274 276 278 279 280 281 280 278 278 278 279 281 282 284 285 286 286 287 288 289 291 292 293 294 294 294 294 294 294 295 295 296 297 298 300 301 302 304 305 307 308 309 310 311 312 313 314 316 316 317 317 317 318 318 318 318 318 318 318 317 316 315 314 312 310 308 306 305 304 304 303 303 304 304 304
260 261 262 262 263 264 266 267 270 272 275 277 278 279 280 281 280 278 278 279 280 281 283 284 284 285 285 286 287 289 290 292 293 293 294 294 294 294 295 295 295 296 297 298 299 300 302 303 305 306 307 309 310 311 312 313 314 315 315 315 316 316 316 317 317 317 317 317 316 316 315 315 313 312 310 309 308 307 306 305 305 305 305 305 306
259 259 260 261 262 264 266 268 270 273 275 277 278 279 281 281 280 278 278 279 280 281 282 282 283 283 284 284 286 288 290 291 292 293 293 294 294 294 294 295 295 296 296 297 298 300 301 303 304 306 307 308 309 310 311 313 313 314 314 314 315 315 315 316 316 316 316 316 315 315 315 314 313 311 310 309 309 308 308 307 307 307 307 307 307
259 259 260 262 264 265 267 269 271 273 274 276 278 280 281 281 280 279 279 280 279 280 280 281 281 282 282 283 285 288 290 291 292 293 293 293 294 294 294 295 295 296 296 297 298 300 302 303 305 306 307 308 309 310 312 312 313 313 313 313 313 314 314 315 315 315 315 315 315 314 314 313 312 311 310 309 309 309 309 308 308 308 308 308 308
261 262 263 264 266 267 268 270 271 272 274 275 278 280 281 280 279 279 280 280 279 279 279 280 280 281 281 283 285 287 289 291 292 292 293 293 293 294 294 295 296 296 297 298 300 301 303 304 305 306 307 308 310 310 311 311 311 311 311 312 313 313 314 314 314 314 314 314 314 313 312 312 311 310 309 309 309 309 309 309 309 308 308 308 308
262 263 264 265 267 268 269 270 271 272 273 275 278 280 280 279 279 279 280 279 279 279 279 279 280 280 282 283 285 287 289 290 292 292 293 293 293 294 295 295 296 297 298 299 301 302 303 304 305 306 308 309 310 310 310 310 310 310 311 311 312 313 313 314 314 313 313 313 313 312 311 311 310 310 309 309 309 309 309 309 309 308 308 308 308
263 263 264 265 267 268 269 270 271 271 273 275 277 279 280 280 279 279 278 278 278 279 279 280 281 281 282 284 286 287 289 291 292 293 293 294 294 295 295 295 296 297 299 300 301 302 303 304 305 307 308 309 309 309 309 309 309 310 310 311 312 312 313 313 313 312 312 312 312 311 311 310 310 310 310 309 309 309 309 309 309 308 308 308 307
264 264 264 265 266 267 269 270 271 272 273 275 277 279 280 281 280 279 279 280 281 282 283 283 283 284 285 286 287 289 290 292 293 293 294 294 295 295 295 296 297 298 299 300 301 302 304 305 306 307 308 308 308 308 308 308 309 309 310 310 311 312 312 312 312 311 311 311 311 311 310 310 310 310 310 309 309 309 309 309 309 308 308 307 307
265 265 265 265 266 268 269 271 272 272 273 275 276 278 280 281 280 280 281 282 284 285 286 286 286 286 287 288 289 290 291 292 293 293 294 294 294 295 295 296 297 298 299 301 302 303 304 305 306 307 307 308 308 308 308 308 308 309 309 310 311 311 311 311 311 311 311 311 311 310 310 310 310 310 309 309 309 309 309 309 308 308 307 307 306
Height
10764 10763 10762 10761 10760 10759 10758 10757 10756 10755 10753 10751 10749 10747 10744 10742 10740 10739 10737 10734 10730 10729 10726 10723 10720 10718 10716 10714 10711 10708 10705 10703 10701 10698 10695 10690 10685 10681 10678 10674 10670 10666 10661 10656 10650 10643 10638 10633 10628 10622 10616 10611 10605 10598 10593 10587 10582 10576 10570 10565 10560 10555 10550 10544 10539 10534 10528 10522 10517 10511 10504 10498 10491 10486 10481 10477 10472 10467 10462 10459 10456 10450 10443 10439 10437
10757 10755 10754 10754 10753 10752 10750 10750 10748 10747 10746 10743 10741 10739 10736 10734 10732 10730 10729 10725 10722 10720 10717 10714 10712 10709 10707 10704 10701 10697 10694 10692 10689 10686 10683 10680 10674 10669 10666 10663 10659 10655 10650 10645 10639 10633 10627 10622 10616 10609 10603 10599 10593 10586 10580 10574 10569 10563 10558 10553 10547 10543 10538 10532 10527 10522 10516 10510 10504 10499 10492 10486 10480 10475 10470 10467 10461 10456 10452 10450 10446 10440 10433 10429 10427
10748 10747 10746 10745 10745 10744 10742 10741 10740 10739 10738 10735 10733 10731 10728 10726 10724 10722 10720 10716 10714 10711 10708 10706 10703 10700 10697 10694 10691 10688 10684 10681 10678 10675 10671 10667 10663 10659 10654 10650 10646 10642 10638 10633 10628 10622 10615 10609 10604 10598 10590 10585 10580 10574 10568 10561 10556 10551 10545 10540 10535 10530 10525 10520 10515 10509 10504 10499 10493 10487 10481 10475 10469 10464 10460 10457 10452 10446 10443 10441 10438 10431 10423 10419 10417
10738 10738 10738 10737 10736 10735 10734 10733 10731 10730 10728 10726 10725 10722 10720 10718 10716 10714 10711 10708 10706 10703 10700 10697 10694 10691 10688 10684 10681 10678 10675 10671 10668 10665 10661 10656 10652 10648 10644 10639 10634 10629 10624 10620 10615 10609 10603 10597 10591 10585 10579 10573 10568 10562 10556 10550 10544 10539 10533 10528 10523 10518 10513 10508 10503 10498 10493 10487 10481 10476 10470 10465 10460 10455 10451 10447 10442 10437 10435 10432 10428 10422 10415 10410 10407
10730 10730 10729 10728 10727 10726 10725 10724 10723 10722 10719 10718 10716 10714 10713 10711 10708 10706 10703 10701 10698 10695 10692 10689 10686 10683 10680 10676 10673 10670 10667 10663 10659 10656 10651 10647 10641 10636 10633 10628 10623 10618 10613 10608 10603 10597 10591 10584 10577 10572 10566 10560 10555 10549 10544 10538 10532 10527 10521 10516 10512 10507 10502 10497 10492 10487 10481 10476 10471 10465 10460 10455 10451 10446 10442 10437 10433 10429 10426 10423 10418 10414 10408 10402 10397
10722 10722 10721 10720 10719 10718 10717 10716 10714 10713 10711 10709 10708 10706 10704 10702 10700 10697 10695 10693 10690 10687 10684 10681 10678 10675 10671 10668 10664 10661 10658 10655 10650 10646 10642 10638 10632 10626 10622 10617 10612 10607 10602 10597 10592 10584 10577 10570 10563 10557 10553 10547 10542 10537 10532 10527 10521 10516 10510 10505 10500 10495 10490 10485 10480 10476 10470 10465 10460 10455 10451 10446 10442 10438 10433 10429 10425 10422 10418 10414 10409 10404 10400 10395 10389
10714 10714 10713 10712 10711 10709 10708 10706 10705 10703 10701 10700 10698 10696 10694 10692 10690 10687 10685 10683 10680 10677 10674 10671 10668 10665 10661 10658 10654 10651 10648 10644 10640 10637 10632 10627 10623 10617 10611 10605 10600 10595 10589 10586 10580 10571 10562 10555 10549 10544 10540 10535 10531 10526 10521 10515 10510 10505 10499 10494 10489 10484 10479 10474 10470 10465 10460 10455 10451 10446 10442 10438 10434 10430 10426 10421 10417 10413 10409 10405 10401 10396 10391 10387 10381
10705 10705 10704 10703 10702 10701 10699 10697 10695 10694 10692 10690 10688 10686 10684 10682 10680 10677 10674 10672 10669 10666 10663 10660 10657 10653 10650 10647 10643 10640 10638 10633 10629 10626 10622 10617 10611 10606 10600 10594 10588 10582 10577 10574 10571 10562 10551 10543 10538 10533 10528 10525 10519 10514 10509 10504 10499 10494 10489 10484 10479 10474 10469 10464 10460 10456 10451 10447 10443 10439 10435 10431 10427 10423 10419 10414 10410 10405 10400 10396 10392 10387 10383 10378 10373
10696 10696 10695 10695 10693 10692 10690 10688 10686 10684 10682 10680 10678 10676 10674 10671 10669 10666 10663 10661 10658 10655 10652 10648 10645 10641 10638 10635 10632 10629 10626 10622 10618 10613 10609 10604 10599 10593 10588 10582 10575 10570 10564 10560 10558 10551 10540 10533 10529 10523 10517 10513 10508 10502 10498 10493 10488 10483 10479 10474 10469 10464 10460 10455 10451 10447 10443 10439 10435 10431 10428 10424 10420 10416 10411 10407 10403 10398 10392 10387 10383 10378 10373 10369 10364
10687 10686 10686 10685 10683 10682 10680 10678 10676 10674 10672 10671 10669 10666 10664 10661 10658 10655 10652 10650 10647 10643 10640 10636 10632 10628 10625 10622 10619 10616 10613 10610 10606 10601 10596 10591 10585 10580 10575 10568 10561 10556 10550 10547 10544 10539 10530 10523 10519 10513 10506 10502 10498 10493 10489 10484 10479 10474 10469 10465 10461 10456 10451 10447 10443 10439 10435 10432 10428 10424 10421 10417 10412 10408 10404 10400 10395 10391 10386 10380 10375 10370 10366 10361 10355
10677 10677 10676 10675 10673 10672 10670 10668 10667 10665 10663 10661 10659 10656 10654 10650 10647 10644 10641 10638 10635 10631 10628 10624 10620 10617 10613 10610 10606 10604 10601 10597 10594 10589 10583 10578 10571 10565 10561 10555 10548 10541 10536 10533 10529 10524 10518 10512 10508 10503 10498 10494 10490 10485 10480 10475 10470 10466 10461 10457 10453 10448 10444 10440 10436 10432 10428 10424 10420 10417 10413 10409 10405 10401 10397 10392 10388 10383 10378 10373 10368 10363 10359 10354 10348
10667 10667 10666 10665 10663 10662 10660 10659 10658 10656 10654 10652 10649 10646 10643 10639 10636 10633 10630 10627 10623 10619 10615 10611 10607 10604 10600 10598 10595 10592 10589 10584 10581 10576 10570 10564 10557 10551 10546 10542 10536 10530 10524 10520 10514 10510 10505 10499 10495 10493 10490 10486 10481 10476 10471 10467 10463 10459 10454 10450 10445 10440 10437 10432 10429 10425 10421 10417 10413 10410 10406 10402 10398 10394 10389 10385 10380 10375 10371 10366 10360 10355 10351 10346 10340
10656 10656 10655 10654 10653 10652 10650 10650 10648 10646 10644 10642 10639 10636 10632 10628 10625 10621 10618 10615 10611 10607 10602 10597 10593 10589 10586 10583 10581 10579 10575 10571 10567 10563 10557 10550 10543 10537 10532 10528 10525 10520 10515 10510 10505 10501 10496 10489 10485 10483 10480 10476 10472 10467 10463 10458 10454 10450 10445 10440 10436 10432 10428 10425 10421 10418 10414 10410 10407 10403 10399 10395 10391 10386 10381 10376 10372 10367 10363 10357 10351 10346 10342 10337 10332
10646 10645 10645 10643 10642 10641 10640 10640 10638 10636 10634 10631 10628 10625 10620 10616 10613 10610 10607 10603 10599 10594 10589 10584 10580 10575 10572 10570 10567 10565 10562 10558 10554 10549 10544 10538 10530 10524 10520 10515 10512 10508 10504 10500 10495 10491 10487 10481 10477 10473 10469 10466 10462 10457 10453 10449 10444 10440 10436 10431 10427 10423 10420 10417 10414 10411 10407 10403 10400 10396 10392 10388 10383 10378 10374 10369 10364 10359 10355 10349 10342 10337 10332 10328 10324
10636 10636 10635 10634 10632 10632 10631 10630 10628 10626 10624 10621 10618 10613 10609 10605 10602 10599 10596 10591 10586 10582 10577 10572 10567 10562 10560 10558 10555 10552 10549 10545 10541 10536 10530 10526 10520 10514 10509 10504 10501 10497 10493 10490 10486 10481 10477 10473 10469 10465 10460 10457 10453 10449 10445 10441 10437 10433 10429 10424 10421 10417 10413 10410 10407 10404 10400 10396 10393 10389 10385 10380 10376 10371 10366 10361 10356 10351 10346 10340 10334 10328 10323 10318 10316
10627 10626 10626 10625 10624 10624 10622 10620 10618 10617 10615 10612 10607 10602 10598 10594 10592 10589 10585 10579 10575 10570 10565 10559 10554 10550 10548 10545 10542 10539 10535 10531 10527 10522 10517 10512 10508 10504 10499 10495 10491 10487 10484 10481 10478 10473 10468 10464 10461 10457 10453 10450 10446 10442 10439 10434 10430 10426 10422 10418 10414 10410 10407 10404 10401 10398 10394 10390 10387 10383 10379 10374 10369 10364 10359 10353 10348 10343 10339 10333 10326 10320 10314 10309 10305
10617 10617 10617 10616 10616 10615 10612 10610 10609 10608 10606 10601 10596 10591 10587 10584 10582 10579 10575 10569 10564 10559 10553 10546 10541 10538 10535 10533 10530 10527 10523 10519 10514 10510 10505 10501 10496 10493 10489 10485 10481 10477 10474 10471 10468 10464 10461 10457 10453 10450 10446 10443 10439 10435 10431 10426 10423 10418 10414 10411 10407 10404 10401 10399 10396 10393 10388 10385 10382 10377 10372 10367 10361 10356 10351 10345 10340 10335 10331 10325 10318 10312 10306 10300 10295
10608 10609 10608 10607 10606 10604 10602 10601 10600 10599 10595 10590 10585 10581 10576 10573 10572 10569 10565 10560 10554 10547 10541 10535 10530 10526 10524 10521 10518 10515 10511 10508 10503 10500 10496 10491 10487 10483 10479 10475 10472 10468 10465 10462 10458 10455 10452 10449 10446 10442 10438 10435 10431 10427 10423 10419 10416 10412 10409 10405 10402 10399 10396 10394 10390 10386 10382 10378 10374 10369 10364 10359 10354 10349 10344 10338 10332 10327 10322 10316 10310 10304 10298 10292 10286
10600 10601 10599 10598 10596 10594 10593 10592 10591 10589 10584 10579 10575 10571 10566 10563 10561 10558 10555 10550 10544 10537 10531 10526 10520 10517 10514 10510 10507 10504 10501 10498 10494 10490 10487 10483 10480 10476 10472 10468 10465 10461 10458 10454 10451 10448 10445 10442 10438 10435 10432 10429 10425 10422 10418 10414 10411 10407 10403 10400 10396 10393 10390 10386 10383 10378 10374 10370 10366 10361 10356 10350 10346 10341 10335 10329 10324 10318 10313 10307 10301 10295 10289 10283 10278
10591 10591 10589 10587 10586 10585 10584 10582 10581 10578 10573 10569 10565 10561 10557 10553 10550 10547 10544 10539 10533 10527 10522 10517 10512 10508 10505 10502 10498 10495 10492 10489 10485 10482 10478 10475 10471 10468 10464 10461 10458 10454 10451 10448 10445 10442 10439 10436 10433 10430 10427 10424 10420 10417 10413 10409 10405 10401 10397 10393 10389 10385 10381 10378 10373 10369 10365 10361 10357 10351 10346 10341 10337 10332 10326 10320 10315 10309 10304 10298 10292 10286 10280 10275 10269
10582 10580 10578 10577 10576 10576 10575 10573 10571 10568 10562 10559 10557 10552 10547 10543 10539 10536 10533 10528 10522 10517 10512 10508 10504 10500 10497 10494 10490 10487 10484 10481 10477 10473 10470 10466 10463 10460 10457 10453 10450 10447 10445 10442 10439 10437 10434 10431 10428 10424 10421 10418 10414 10410 10406 10402 10398 10393 10389 10385 10381 10376 10373 10369 10365 10360 10356 10352 10347 10342 10337 10332 10327 10322 10317 10310 10305 10300 10295 10289 10283 10277 10271 10266 10260
10570 10568 10567 10567 10566 10566 10566 10563 10561 10557 10552 10550 10547 10543 10538 10533 10528 10525 10521 10516 10511 10506 10503 10500 10496 10492 10489 10486 10482 10479 10475 10472 10469 10465 10462 10459 10455 10452 10449 10446 10443 10440 10438 10435 10432 10429 10427 10424 10421 10417 10414 10410 10406 10402 10398 10393 10389 10385 10381 10377 10373 10368 10365 10361 10356 10352 10347 10342 10337 10332 10327 10322 10318 10313 10307 10301 10296 10291 10285 10279 10273 10267 10262 10256 10251
10558 10558 10558 10558 10557 10556 10555 10553 10551 10547 10542 10539 10536 10533 10529 10524 10519 10515 10511 10506 10501 10496 10492 10490 10487 10483 10480 10477 10474 10471 10468 10465 10461 10458 10455 10452 10450 10447 10443 10440 10437 10434 10432 10429 10426 10423 10420 10417 10414 10411 10407 10403 10399 10396 10391 10386 10382 10379 10375 10370 10365 10360 10357 10353 10348 10343 10337 10332 10327 10321 10317 10312 10308 10303 10297 10291 10286 10281 10275 10269 10263 10257 10252 10247 10241
10548 10549 10548 10548 10546 10544 10543 10542 10539 10536 10531 10528 10525 10522 10518 10514 10511 10507 10503 10498 10493 10488 10484 10480 10478 10475 10472 10470 10467 10464 10461 10458 10455 10452 10449 10447 10444 10441 10438 10435 10433 10430 10428 10425 10421 10419 10416 10412 10409 10405 10401 10398 10394 10390 10385 10380 10375 10372 10367 10362 10357 10352 10348 10344 10339 10334 10328 10323 10317 10312 10307 10303 10298 10292 10287 10281 10276 10270 10265 10259 10253 10247 10241 10236 10230
10538 10538 10537 10537 10535 10532 10530 10529 10526 10523 10519 10516 10514 10511 10508 10505 10502 10499 10495 10491 10486 10481 10477 10473 10471 10468 10466 10463 10461 10458 10455 10453 10450 10447 10444 10441 10438 10436 10433 10430 10427 10424 10421 10418 10415 10412 10409 10405 10402 10398 10394 10390 10386 10382 10378 10372 10367 10363 10359 10354 10349 10344 10339 10335 10329 10325 10319 10314 10308 10302 10297 10292 10287 10282 10276 10271 10265 10260 10255 10248 10242 10236 10230 10225 10219
10527 10527 10526 10525 10522 10518 10516 10515 10513 10511 10508 10505 10504 10502 10499 10496 10493 10489 10486 10482 10478 10474 10470 10467 10464 10462 10459 10457 10455 10452 10449 10447 10444 10442 10439 10436 10433 10430 10427 10423 10420 10417 10414 10411 10407 10404 10400 10397 10394 10390 10386 10382 10378 10374 10370 10365 10359 10353 10349 10345 10339 10334 10330 10325 10320 10315 10310 10304 10298 10292 10287 10282 10277 10271 10265 10260 10255 10250 10244 10238 10232 10225 10219 10213 10207
10515 10514 10513 10511 10508 10505 10503 10502 10500 10498 10496 10494 10492 10490 10488 10487 10484 10480 10476 10473 10470 10467 10463 10459 10457 10454 10451 10449 10447 10445 10442 10440 10438 10435 10432 10429 10427 10424 10420 10416 10413 10410 10407 10403 10399 10396 10392 10389 10386 10382 10378 10374 10369 10365 10361 10356 10350 10344 10339 10335 10330 10324 10320 10315 10310 10305 10300 10294 10288 10282 10276 10271 10266 10260 10255 10250 10244 10239 10233 10227 10221 10215 10208 10202 10196
10501 10500 10499 10498 10496 10493 10491 10490 10488 10486 10485 10483 10481 10479 10477 10476 10474 10471 10467 10464 10461 10458 10455 10453 10450 10447 10444 10441 10439 10437 10435 10433 10431 10428 10425 10423 10420 10416 10413 10409 10406 10403 10400 10396 10392 10388 10384 10381 10377 10373 10369 10364 10360 10356 10351 10347 10342 10335 10329 10324 10319 10313 10309 10304 10299 10294 10289 10284 10277 10271 10265 10259 10254 10248 10243 10238 10232 10227 10222 10216 10209 10204 10198 10192 10185
10488 10487 10487 10487 10485 10482 10480 10478 10476 10475 10474 10473 10471 10469 10467 10466 10464 10462 10459 10456 10452 10449 10446 10444 10442 10439 10436 10433 10431 10429 10427 10425 10423 10420 10417 10415 10412 10408 10404 10401 10397 10394 10391 10387 10383 10379 10375 10372 10368 10364 10360 10355 10351 10346 10342 10338 10333 10327 10321 10315 10309 10303 10298 10293 10288 10283 10278 10272 10266 10260 10254 10247 10241 10236 10231 10225 10220 10214 10209 10203 10197 10192 10187 10181 10175
10477 10476 10476 10476 10474 10473 10471 10468 10466 10464 10463 10462 10461 10460 10458 10456 10454 10452 10449 10447 10445 10441 10437 10434 10432 10430 10428 10426 10423 10420 10418 10416 10414 10411 10409 10406 10402 10399 10395 10391 10388 10385 10381 10377 10374 10370 10366 10362 10358 10354 10350 10346 10341 10336 10332 10327 10323 10318 10313 10306 10300 10293 10288 10283 10277 10272 10266 10261 10255 10249 10243 10236 10229 10223 10218 10213 10207 10201 10196 10191 10185 10180 10175 10170 10164
10465 10465 10466 10465 10464 10463 10461 10458 10456 10454 10453 10452 10451 10449 10448 10446 10444 10442 10440 10437 10435 10432 10429 10426 10422 10420 10419 10417 10415 10412 10410 10407 10405 10402 10400 10397 10393 10389 10386 10382 10379 10375 10371 10367 10364 10360 10356 10352 10348 10343 10339 10335 10331 10326 10322 10317 10312 10308 10303 10297 10291 10284 10278 10272 10266 10261 10255 10249 10243 10237 10230 10223 10217 10211 10205 10200 10195 10189 10183 10178 10172 10167 10162 10157 10151
10454 10454 10455 10455 10454 10453 10450 10448 10446 10443 10443 10443 10441 10440 10438 10436 10434 10433 10430 10427 10425 10423 10420 10418 10414 10412 10409 10407 10405 10403 10400 10398 10396 10393 10390 10387 10384 10380 10376 10372 10369 10365 10361 10358 10354 10350 10346 10342 10337 10333 10329 10325 10320 10316 10311 10306 10301 10297 10292 10288 10281 10275 10269 10262 10256 10250 10243 10237 10230 10224 10217 10210 10203 10197 10191 10186 10181 10176 10170 10164 10159 10154 10149 10144 10138
10444 10444 10444 10444 10444 10442 10440 10438 10435 10433 10432 10432 10431 10429 10428 10426 10425 10423 10420 10418 10416 10413 10411 10409 10406 10403 10400 10397 10395 10393 10390 10388 10385 10383 10380 10377 10374 10370 10366 10362 10359 10355 10351 10347 10344 10340 10336 10332 10327 10323 10318 10314 10310 10305 10300 10295 10291 10286 10282 10277 10271 10265 10258 10251 10245 10238 10232 10225 10219 10212 10205 10198 10191 10184 10178 10173 10167 10162 10157 10151 10145 10140 10136 10131 10125
10433 10433 10433 10434 10433 10431 10430 10428 10425 10423 10422 10421 10420 10419 10417 10416 10414 10412 10410 10408 10406 10403 10401 10399 10397 10394 10391 10388 10385 10382 10379 10377 10375 10372 10370 10367 10364 10360 10356 10352 10349 10345 10341 10337 10334 10330 10326 10321 10317 10313 10308 10304 10299 10295 10290 10285 10280 10275 10270 10265 10259 10253 10247 10240 10234 10227 10221 10215 10209 10202 10195 10187 10180 10173 10166 10161 10155 10149 10144 10138 10132 10128 10124 10118 10113
10422 10422 10422 10422 10421 10420 10418 10416 10414 10413 10411 10409 10409 10409 10407 10406 10404 10402 10400 10398 10396 10394 10392 10389 10387 10385 10382 10379 10376 10372 10369 10366 10364 10361 10359 10356 10353 10349 10345 10341 10338 10335 10331 10327 10323 10319 10315 10310 10306 10302 10298 10293 10289 10284 10280 10275 10269 10264 10259 10254 10248 10242 10236 10229 10223 10216 10210 10204 10198 10191 10184 10176 10169 10162 10155 10149 10143 10137 10131 10125 10120 10116 10111 10106 10101
10410 10410 10410 10410 10409 10408 10407 10405 10403 10401 10399 10399 10398 10397 10396 10395 10393 10391 10390 10388 10385 10384 10382 10379 10377 10375 10372 10369 10366 10363 10359 10356 10353 10350 10348 10345 10341 10338 10334 10330 10327 10323 10320 10316 10312 10308 10304 10300 10295 10291 10287 10282 10278 10273 10269 10264 10259 10254 10249 10243 10237 10231 10224 10218 10211 10205 10199 10193 10186 10179 10172 10165 10158 10150 10144 10138 10132 10125 10119 10113 10108 10104 10099 10093 10088
10398 10398 10398 10397 10397 10396 10395 10393 10391 10389 10388 10387 10386 10385 10385 10383 10382 10380 10379 10376 10375 10373 10371 10369 10366 10364 10361 10358 10355 10352 10349 10346 10342 10339 10336 10333 10330 10327 10323 10319 10316 10312 10308 10304 10300 10296 10292 10288 10284 10280 10276 10272 10267 10263 10258 10253 10248 10243 10238 10232 10226 10220 10213 10206 10200 10193 10187 10181 10174 10167 10161 10154 10146 10139 10133 10127 10120 10113 10106 10101 10096 10091 10085 10080 10074
10386 10387 10386 10386 10385 10384 10382 10381 10379 10378 10377 10376 10374 10374 10373 10372 10370 10369 10367 10366 10364 10362 10360 10358 10356 10353 10350 10347 10344 10341 10338 10335 10332 10329 10326 10322 10319 10315 10311 10308 10305 10301 10297 10294 10289 10285 10280 10276 10272 10268 10264 10260 10256 10251 10247 10242 10237 10231 10226 10221 10214 10207 10201 10194 10188 10182 10176 10170 10163 10156 10149 10142 10134 10127 10121 10114 10107 10100 10094 10089 10083 10077 10072 10066 10060
10374 10374 10374 10374 10373 10372 10370 10369 10368 10366 10365 10364 10363 10362 10361 10360 10358 10357 10356 10354 10353 10351 10349 10347 10345 10342 10339 10336 10333 10330 10327 10324 10321 10318 10315 10312 10309 10305 10300 10297 10293 10289 10286 10283 10279 10275 10270 10264 10259 10255 10251 10247 10243 10239 10234 10229 10224 10218 10213 10207 10201 10194 10188 10181 10176 10169 10163 10157 10150 10143 10136 10129 10121 10115 10108 10101 10094 10087 10081 10076 10070 10064 10058 10052 10046
10361 10361 10362 10361 10361 10359 10358 10357 10355 10354 10353 10352 10351 10350 10349 10348 10346 10345 10344 10342 10341 10339 10337 10336 10333 10331 10328 10325 10322 10320 10316 10313 10310 10307 10303 10300 10297 10294 10290 10286 10282 10278 10274 10271 10267 10263 10259 10253 10248 10244 10239 10234 10230 10225 10220 10215 10209 10204 10199 10193 10186 10180 10174 10167 10162 10155 10149 10143 10136 10130 10123 10115 10108 10102 10095 10088 10080 10074 10068 10062 10056 10050 10044 10038 10032
10349 10349 10349 10348 10347 10346 10345 10344 10343 10342 10341 10340 10339 10338 10337 10335 10334 10333 10331 10330 10329 10327 10325 10323 10321 10319 10316 10314 10311 10308 10305 10302 10299 10295 10292 10289 10285 10282 10279 10275 10271 10267 10263 10259 10256 10252 10247 10242 10237 10232 10227 10222 10217 10212 10207 10201 10196 10190 10185 10178 10172 10166 10160 10153 10147 10141 10135 10129 10122 10115 10108 10101 10095 10089 10082 10075 10068 10061 10055 10049 10043 10036 10030 10024 10018
10336 10336 10336 10335 10334 10333 10332 10331 10330 10329 10328 10327 10326 10325 10324 10323 10322 10320 10319 10318 10316 10314 10313 10311 10309 10307 10305 10302 10300 10297 10294 10291 10287 10283 10280 10277 10273 10270 10267 10263 10259 10256 10252 10248 10244 10240 10235 10231 10226 10221 10216 10211 10205 10200 10194 10188 10182 10177 10171 10164 10158 10153 10146 10139 10133 10127 10121 10115 10109 10102 10095 10088 10082 10075 10069 10062 10055 10048 10042 10035 10028 10022 10016 10009 10003
10323 10323 10323 10322 10321 10320 10319 10318 10317 10316 10315 10315 10314 10313 10311 10310 10309 10307 10306 10304 10303 10301 10300 10298 10296 10294 10292 10290 10287 10285 10282 10278 10275 10271 10268 10264 10261 10258 10254 10250 10247 10243 10239 10236 10232 10227 10223 10219 10214 10208 10204 10198 10193 10187 10182 10175 10169 10163 10157 10151 10145 10139 10133 10126 10120 10114 10108 10102 10095 10088 10081 10074 10068 10061 10054 10047 10041 10034 10028 10021 10014 10007 10001 9994 9988
10309 10310 10310 10309 10308 10307 10306 10305 10304 10304 10303 10302 10301 10300 10299 10297 10295 10294 10293 10291 10289 10288 10286 10284 10283 10281 10279 10276 10274 10271 10268 10265 10262 10258 10255 10251 10248 10244 10241 10237 10234 10230 10226 10222 10218 10214 10210 10206 10201 10196 10191 10185 10180 10174 10168 10162 10156 10150 10143 10138 10132 10126 10119 10113 10106 10100 10094 10088 10081 10074 10067 10059 10052 10045 10038 10032 10025 10019 10012 10005 9998 9991 9985 9978 9971
10296 10296 10296 10296 10295 10294 10293 10293 10292 10291 10290 10289 10288 10287 10285 10284 10282 10281 10279 10278 10276 10274 10273 10271 10269 10267 10264 10262 10260 10257 10254 10251 10248 10244 10241 10238 10234 10231 10227 10224 10220 10217 10213 10209 10205 10201 10197 10193 10188 10183 10177 10171 10166 10160 10154 10147 10141 10135 10130 10124 10119 10112 10106 10099 10092 10085 10079 10072 10065 10058 10051 10043 10036 10029 10022 10015 10009 10002 9996 9989 9981 9974 9967 9960 9953
10281 10282 10282 10282 10281 10281 10280 10280 10279 10278 10278 10276 10275 10274 10272 10271 10269 10268 10266 10265 10263 10261 10259 10257 10254 10252 10250 10248 10245 10243 10240 10236 10233 10230 10227 10224 10220 10217 10213 10210 10206 10202 10199 10195 10191 10188 10184 10179 10174 10169 10163 10157 10151 10145 10139 10133 10127 10121 10116 10110 10104 10098 10091 10085 10078 10071 10064 10056 10049 10042 10035 10028 10020 10013 10006 9999 9993 9986 9979 9972 9965 9957 9950 9942 9935
10268 10268 10268 10268 10268 10267 10267 10266 10266 10265 10264 10263 10262 10261 10259 10257 10256 10255 10253 10251 10249 10246 10244 10242 10239 10237 10235 10233 10230 10228 10225 10221 10218 10216 10212 10209 10206 10203 10199 10195 10192 10188 10184 10181 10177 10173 10169 10164 10160 10154 10149 10143 10136 10130 10123 10118 10112 10107 10101 10095 10089 10083 10076 10069 10063 10056 10048 10041 10034 10026 10019 10012 10005 9998 9991 9984 9977 9970 9963 9956 9948 9940 9932 9925 9917
10254 10254 10254 10254 10254 10253 10253 10253 10252 10252 10251 10250 10249 10247 10245 10244 10242 10241 10238 10236 10234 10232 10229 10227 10225 10223 10220 10218 10215 10213 10210 10206 10204 10201 10197 10194 10191 10187 10184 10180 10177 10173 10169 10166 10161 10157 10153 10148 10144 10139 10133 10128 10122 10116 10110 10104 10098 10092 10085 10079 10072 10066 10060 10053 10046 10039 10032 10025 10018 10011 10003 9997 9990 9982 9976 9969 9961 9954 9947 9939 9931 9923 9915 9907 9899
10240 10240 10240 10240 10240 10239 10239 10239 10239 10238 10237 10236 10235 10233 10231 10230 10228 10225 10223 10221 10219 10217 10215 10212 10210 10208 10206 10203 10200 10197 10194 10191 10188 10185 10181 10178 10175 10171 10168 10165 10161 10158 10154 10150 10145 10141 10136 10132 10127 10122 10117 10111 10106 10100 10094 10088 10082 10075 10069 10062 10056 10049 10043 10036 10029 10022 10015 10008 10001 9994 9986 9980 9973 9966 9960 9952 9945 9937 9930 9922 9913 9905 9897 9888 9881
10226 10226 10226 10226 10226 10226 10226 10225 10225 10224 10222 10221 10220 10218 10216 10214 10212 10210 10208 10206 10204 10202 10200 10197 10195 10193 10190 10187 10184 10181 10178 10175 10172 10168 10165 10162 10159 10155 10153 10149 10145 10142 10137 10132 10128 10123 10119 10114 10109 10104 10099 10094 10088 10083 10077 10071 10065 10058 10052 10045 10038 10032 10025 10018 10011 10004 9997 9990 9983 9976 9969 9963 9957 9950 9943 9935 9927 9920 9912 9904 9895 9887 9879 9871 9864
10213 10213 10212 10212 10212 10211 10211 10210 10210 10208 10207 10205 10204 10202 10200 10199 10197 10195 10192 10191 10188 10186 10184 10181 10179 10176 10174 10171 10168 10164 10161 10158 10155 10152 10149 10146 10143 10139 10136 10133 10129 10124 10120 10115 10111 10106 10101 10097 10092 10087 10081 10076 10071 10065 10059 10053 10047 10040 10034 10027 10020 10014 10007 10000 9993 9986 9979 9972 9965 9958 9952 9946 9940 9933 9926 9918 9910 9902 9893 9885 9877 9869 9861 9854 9848